| time (UTC) | temp C | wind direction | speed KPH | gust KPH | rain 1hr cm | rain 24hr cm | rain mn cm | humidity % | barometer mb |
| 20260506221906 | 13 | 58 | 3.2 | 12.9 | 0.00 | 6.30 | 0.00 | 77 | 1013.6 |
| 20260506220906 | 13 | 137 | 9.7 | 19.3 | 0.00 | 6.30 | 0.00 | 75 | 1013.8 |
| 20260506220406 | 13 | 137 | 9.7 | 16.1 | 0.00 | 6.30 | 0.00 | 74 | 1013.7 |
| 20260506214905 | 14 | 211 | 3.2 | 11.3 | 0.00 | 6.30 | 6.30 | 65 | 1013.6 |
| 20260506214408 | 14 | 34 | 1.6 | 9.7 | 0.00 | 6.30 | 6.30 | 65 | 1013.5 |
| 20260506211907 | 13 | 34 | 1.6 | 3.2 | 0.00 | 6.30 | 6.30 | 69 | 1013.3 |
| 20260506210905 | 13 | 34 | 1.6 | 4.8 | 0.00 | 6.30 | 6.30 | 69 | 1013.3 |
| 20260506210405 | 13 | 34 | 6.4 | 9.7 | 0.00 | 6.30 | 6.30 | 67 | 1013.3 |
| 20260506204905 | 13 | 34 | 3.2 | 4.8 | 0.00 | 6.30 | 6.30 | 69 | 1013.2 |
| 20260506204405 | 13 | 34 | 3.2 | 4.8 | 0.00 | 6.30 | 6.30 | 69 | 1013.2 |
| 20260506203905 | 13 | 34 | 1.6 | 4.8 | 0.00 | 6.30 | 6.30 | 70 | 1013.2 |
| 20260506201906 | 13 | 34 | 3.2 | 8.0 | 0.00 | 6.93 | 6.30 | 73 | 1013.1 |
| 20260506194405 | 13 | 34 | 4.8 | 8.0 | 0.00 | 7.26 | 6.30 | 76 | 1012.7 |
| 20260506193907 | 13 | 34 | 1.6 | 4.8 | 0.00 | 7.26 | 6.30 | 77 | 1012.6 |
| 20260506191907 | 13 | 34 | 4.8 | 12.9 | 0.00 | 7.26 | 6.30 | 78 | 1012.3 |
| 20260506190912 | 14 | 34 | 6.4 | 11.3 | 0.00 | 7.26 | 6.30 | 79 | 1012.1 |
| 20260506190407 | 14 | 34 | 4.8 | 9.7 | 0.00 | 7.29 | 6.30 | 79 | 1012.1 |
| 20260506184407 | 14 | 34 | 3.2 | 11.3 | 0.00 | 7.37 | 6.30 | 81 | 1011.9 |
| 20260506183907 | 15 | 34 | 4.8 | 12.9 | 0.00 | 7.37 | 6.30 | 82 | 1011.9 |
| 20260506174907 | 17 | 204 | 8.0 | 16.1 | 0.00 | 7.37 | 6.30 | 74 | 1011.4 |
| 20260506174407 | 17 | 190 | 12.9 | 20.9 | 0.00 | 7.37 | 6.30 | 72 | 1011.3 |
| 20260506171907 | 17 | 192 | 11.3 | 19.3 | 0.00 | 7.37 | 6.30 | 72 | 1011.2 |
| 20260506164406 | 17 | 233 | 9.7 | 22.5 | 0.00 | 7.37 | 6.30 | 68 | 1010.9 |
| 20260506163907 | 17 | 225 | 11.3 | 19.3 | 0.00 | 7.37 | 6.30 | 69 | 1010.9 |
| 20260506153407 | 18 | 234 | 17.7 | 32.2 | 0.05 | 7.37 | 6.30 | 72 | 1010.6 |
| 20260506151407 | 18 | 238 | 9.7 | 19.3 | 0.05 | 7.37 | 6.30 | 79 | 1010.7 |
| 20260506150906 | 18 | 225 | 8.0 | 19.3 | 0.05 | 7.37 | 6.30 | 81 | 1010.8 |
| 20260506144907 | 17 | 251 | 3.2 | 4.8 | 0.05 | 7.34 | 6.27 | 81 | 1010.8 |
| 20260506144407 | 17 | 197 | 3.2 | 4.8 | 0.05 | 7.34 | 6.27 | 81 | 1010.9 |
| 20260506141406 | 18 | 228 | 4.8 | 12.9 | 0.05 | 7.29 | 6.25 | 81 | 1010.8 |
| 20260506140907 | 17 | 270 | 9.7 | 16.1 | 0.08 | 7.29 | 6.25 | 80 | 1010.8 |
| 20260506134406 | 16 | 174 | 1.6 | 4.8 | 0.10 | 7.29 | 6.25 | 80 | 1011.2 |
| 20260506133907 | 16 | 301 | 3.2 | 4.8 | 0.08 | 7.29 | 6.22 | 81 | 1011.2 |
| 20260506133407 | 16 | 252 | 1.6 | 12.9 | 0.08 | 7.29 | 6.22 | 80 | 1011.2 |
| 20260506131407 | 16 | 260 | 9.7 | 19.3 | 0.10 | 7.26 | 6.20 | 82 | 1011.4 |
| 20260506124906 | 17 | 248 | 11.3 | 27.4 | 0.05 | 7.19 | 6.15 | 81 | 1011.2 |
| 20260506124406 | 17 | 243 | 14.5 | 22.5 | 0.05 | 7.19 | 6.15 | 82 | 1011.2 |
| 20260506121906 | 18 | 194 | 19.3 | 32.2 | 0.05 | 7.21 | 6.15 | 80 | 1010.7 |
| 20260506121407 | 18 | 208 | 16.1 | 33.8 | 0.00 | 7.19 | 6.10 | 79 | 1010.6 |
| 20260506120906 | 18 | 184 | 12.9 | 27.4 | 0.00 | 7.19 | 6.10 | 79 | 1010.5 |
| 20260506120406 | 18 | 193 | 19.3 | 32.2 | 0.00 | 7.19 | 6.10 | 78 | 1010.5 |
| 20260506114407 | 19 | 195 | 24.1 | 35.4 | 0.00 | 7.24 | 6.10 | 78 | 1010.7 |
| 20260506113906 | 18 | 203 | 20.9 | 37.0 | 0.00 | 7.29 | 6.10 | 79 | 1010.8 |
| 20260506111907 | 18 | 204 | 20.9 | 37.0 | 0.00 | 7.44 | 6.10 | 78 | 1010.8 |
| 20260506110406 | 18 | 201 | 22.5 | 33.8 | 0.00 | 7.54 | 6.10 | 80 | 1010.7 |
| 20260506104906 | 18 | 196 | 16.1 | 29.0 | 0.00 | 7.67 | 6.10 | 80 | 1011.0 |
| 20260506104406 | 18 | 216 | 17.7 | 27.4 | 0.00 | 7.75 | 6.10 | 81 | 1011.1 |
| 20260506103906 | 17 | 209 | 16.1 | 29.0 | 0.00 | 7.77 | 6.10 | 82 | 1011.2 |
| 20260506100406 | 16 | 203 | 6.4 | 19.3 | 0.00 | 8.26 | 6.10 | 82 | 1011.3 |
| 20260506094906 | 16 | 217 | 9.7 | 14.5 | 0.00 | 8.41 | 6.10 | 81 | 1011.5 |
| 20260506093406 | 16 | 201 | 14.5 | 24.1 | 0.00 | 8.51 | 6.10 | 81 | 1011.4 |
| 20260506091406 | 16 | 216 | 4.8 | 14.5 | 0.00 | 8.61 | 6.10 | 62 | 1011.2 |
| 20260506084906 | 15 | 223 | 6.4 | 11.3 | 0.03 | 9.17 | 6.10 | 37 | 1011.4 |
| 20260506084406 | 15 | 200 | 8.0 | 12.9 | 0.03 | 9.22 | 6.10 | 34 | 1011.4 |
| 20260506083906 | 15 | 177 | 6.4 | 12.9 | 0.03 | 9.30 | 6.10 | 34 | 1011.3 |
| 20260506081906 | 15 | 211 | 8.0 | 14.5 | 0.03 | 9.35 | 6.10 | 36 | 1011.5 |
| 20260506080906 | 15 | 231 | 8.0 | 16.1 | 0.03 | 9.37 | 6.10 | 37 | 1011.5 |
| 20260506080406 | 14 | 192 | 9.7 | 24.1 | 0.03 | 9.50 | 6.10 | 37 | 1011.4 |
| 20260506073406 | 14 | 56 | 0.0 | 4.8 | 0.51 | 10.03 | 6.07 | 38 | 1011.2 |
| 20260506071406 | 13 | 46 | 0.0 | 3.2 | 0.64 | 10.03 | 6.07 | 39 | 1011.3 |
| 20260506070906 | 13 | 121 | 3.2 | 4.8 | 0.64 | 10.03 | 6.07 | 39 | 1011.2 |
| 20260506070406 | 13 | 156 | 1.6 | 4.8 | 0.69 | 10.06 | 6.07 | 39 | 1011.1 |
| 20260506061906 | 13 | 259 | 8.0 | 12.9 | 0.51 | 9.63 | 5.49 | 40 | 1011.0 |
| 20260506061406 | 13 | 230 | 3.2 | 8.0 | 0.46 | 9.60 | 5.44 | 40 | 1011.0 |
| 20260506060406 | 13 | 207 | 3.2 | 9.7 | 0.43 | 9.58 | 5.41 | 40 | 1011.0 |
| 20260506043906 | 13 | 57 | 8.0 | 12.9 | 0.05 | 10.49 | 4.93 | 43 | 1010.9 |
| 20260506043412 | 13 | 74 | 4.8 | 16.1 | 0.03 | 10.49 | 4.90 | 43 | 1011.0 |
| 20260506041406 | 13 | 86 | 9.7 | 11.3 | 0.30 | 10.54 | 4.90 | 44 | 1011.4 |
| 20260506040406 | 13 | 77 | 8.0 | 12.9 | 0.43 | 10.54 | 4.90 | 44 | 1011.7 |
| 20260506034906 | 13 | 77 | 0.0 | 1.6 | 0.76 | 10.54 | 4.90 | 44 | 1012.0 |
| 20260506034406 | 13 | 77 | 1.6 | 1.6 | 0.79 | 10.54 | 4.90 | 44 | 1011.9 |
| 20260506031906 | 13 | 125 | 11.3 | 19.3 | 0.61 | 10.34 | 4.67 | 44 | 1011.8 |
| 20260506030906 | 13 | 38 | 3.2 | 8.0 | 0.51 | 10.21 | 4.55 | 44 | 1012.0 |
| 20260506024406 | 13 | 243 | 0.0 | 0.0 | 0.53 | 9.78 | 4.09 | 45 | 1011.6 |
| 20260506023905 | 13 | 243 | 0.0 | 0.0 | 0.64 | 9.75 | 4.06 | 45 | 1011.7 |
| 20260506023406 | 13 | 243 | 0.0 | 4.8 | 0.69 | 9.75 | 4.06 | 45 | 1011.6 |
| 20260506021906 | 13 | 20 | 0.0 | 4.8 | 0.84 | 9.80 | 4.06 | 45 | 1011.6 |
| 20260506021406 | 13 | 23 | 4.8 | 11.3 | 0.84 | 9.83 | 4.06 | 45 | 1011.5 |
| 20260506020406 | 13 | 28 | 9.7 | 19.3 | 0.81 | 9.83 | 4.01 | 45 | 1011.5 |
| 20260506013407 | 13 | 56 | 4.8 | 9.7 | 0.30 | 9.27 | 3.38 | 46 | 1011.9 |
| 20260506011905 | 13 | 57 | 4.8 | 8.0 | 0.25 | 9.14 | 3.23 | 46 | 1012.0 |
| 20260506011406 | 13 | 57 | 4.8 | 9.7 | 0.33 | 9.14 | 3.23 | 46 | 1012.1 |
| 20260506010406 | 13 | 58 | 6.4 | 12.9 | 1.40 | 9.12 | 3.20 | 47 | 1012.2 |
| 20260506004905 | 13 | 53 | 8.0 | 11.3 | 2.39 | 9.09 | 3.17 | 46 | 1012.4 |
| 20260506004405 | 13 | 53 | 1.6 | 3.2 | 2.69 | 9.07 | 3.15 | 47 | 1012.8 |
| 20260506003905 | 13 | 53 | 1.6 | 4.8 | 2.77 | 9.04 | 3.12 | 47 | 1012.8 |
| 20260506003406 | 13 | 53 | 3.2 | 16.1 | 2.77 | 8.99 | 3.07 | 48 | 1012.7 |
| 20260506001906 | 14 | 25 | 3.2 | 19.3 | 2.92 | 8.89 | 2.97 | 51 | 1012.6 |
| 20260506001406 | 14 | 52 | 12.9 | 19.3 | 2.87 | 8.81 | 2.90 | 51 | 1012.6 |
| 20260506000905 | 15 | 76 | 3.2 | 4.8 | 2.46 | 8.38 | 2.46 | 52 | 1013.2 |
| 20260505234409 | 15 | 117 | 3.2 | 8.0 | 0.56 | 6.48 | 0.56 | 73 | 1012.9 |
| 20260505233905 | 15 | 221 | 3.2 | 8.0 | 0.36 | 6.27 | 0.36 | 74 | 1012.9 |
| 20260505233405 | 15 | 35 | 3.2 | 16.1 | 0.33 | 6.25 | 0.33 | 74 | 1012.9 |
| 20260505231906 | 15 | 60 | 8.0 | 16.1 | 0.05 | 5.97 | 0.05 | 75 | 1013.0 |
| 20260505230905 | 15 | 65 | 8.0 | 20.9 | 0.00 | 5.92 | 0.00 | 74 | 1013.0 |
| 20260505230405 | 15 | 113 | 8.0 | 12.9 | 0.00 | 5.92 | 0.00 | 74 | 1013.2 |
| 20260505224905 | 15 | 103 | 4.8 | 8.0 | 0.00 | 5.92 | 0.00 | 75 | 1013.3 |
| 20260505223906 | 15 | 64 | 9.7 | 14.5 | 0.00 | 5.92 | 0.00 | 75 | 1013.3 |